Zurück zum Katalog

COSMOS 2251 DEB

AktivLEO
NORAD 37967·DEBRIS·🇷🇺 Russia

Gestartet Jun 16, 1993 von Plesetsk Cosmodrome

Loading…

Nächste Überflüge (nächste 24 Stunden)

TLE

AktuellSource: Space-Track

Epoche: Sep 14, 2026, 05:34 UTC

1 37967U 93036BPS 26257.23224216  .00001863  00000-0  50062-3 0  9991
2 37967  74.0160 345.9538 0145852  57.5530 303.9634 14.42640532687065

Verfolge COSMOS 2251 DEB in Echtzeit mit AllMySat

Download on the App Store